sat.trackr.live / text

‹ back to catalog

STARLINK-30929

NORAD 58386 · 2023-178N

PAYLOAD ACTIVE UNKNOWN

§ Identity

Operator
Country
US
Launch date
2023-11-20
Launch site
AFWTR
Launch vehicle
Mass (kg)
RCS (m²)

Purposes: comms

External: N2YO · Heavens-Above · Gunter

§ Orbital elements

Epoch: 2026-09-20T07:23:16.586304Z

Period
93.85 min
Inclination
53.1603°
Eccentricity
0.0001196
Mean motion
15.34405862 rev/d
Perigee alt
461.9 km
Apogee alt
463.5 km
Semi-major
6,840.8 km
B*
6.2675e-5
RAAN
172.9671°
Arg perigee
82.5655°
Mean anomaly
277.5483°
Rev number
15,972

§ Raw data

STARLINK-309291 58386U 23178N   26263.30783086  .00001742  00000+0  62675-4 0  99982 58386  53.1603 172.9671 0001196  82.5655 277.5483 15.34405862159729

JSON: /api/v1/satellites/58386 · /tle

For live sub-satellite position, see the globe view (requires WebGL).

§ Visibility from observer

Set your observer location to see the next 7 days of passes ≥ 10°. The values pass through the URL so the page stays shareable.

No JS? Fill the form by hand. The geolocation button needs JavaScript.